TimeCDT,TemperatureF,Dew PointF,Humidity,Sea Level PressureIn,VisibilityMPH,Wind Direction,Wind SpeedMPH,Gust SpeedMPH,PrecipitationIn,Events,Conditions,WindDirDegrees,DateUTC
12:57 AM,81.0,66.9,62,30.00,10.0,SSW,10.4,-,N/A,,Clear,200,2013-07-10 05:57:00
1:57 AM,81.0,66.0,60,30.00,10.0,SSW,9.2,-,N/A,,Clear,210,2013-07-10 06:57:00
2:57 AM,80.1,64.9,60,29.99,10.0,SSW,9.2,-,N/A,,Clear,200,2013-07-10 07:57:00
3:57 AM,80.1,64.9,60,29.99,10.0,SSW,8.1,-,N/A,,Clear,200,2013-07-10 08:57:00
4:57 AM,79.0,64.0,60,29.99,10.0,SSW,5.8,-,N/A,,Clear,200,2013-07-10 09:57:00
5:57 AM,77.0,64.0,64,30.00,10.0,SSW,5.8,-,N/A,,Clear,200,2013-07-10 10:57:00
6:57 AM,75.0,64.9,71,30.01,10.0,NNE,6.9,-,N/A,,Clear,30,2013-07-10 11:57:00
7:57 AM,79.0,66.0,64,30.02,10.0,ENE,3.5,-,N/A,,Scattered Clouds,70,2013-07-10 12:57:00
8:57 AM,80.1,66.9,64,30.01,10.0,ESE,5.8,-,N/A,,Clear,120,2013-07-10 13:57:00
9:57 AM,87.1,66.0,49,30.00,10.0,SSW,10.4,-,N/A,,Clear,210,2013-07-10 14:57:00
10:57 AM,89.1,64.9,45,30.00,10.0,SW,13.8,-,N/A,,Clear,230,2013-07-10 15:57:00
11:57 AM,91.9,64.9,41,29.99,10.0,SW,8.1,-,N/A,,Clear,230,2013-07-10 16:57:00
12:57 PM,95.0,64.9,37,29.99,10.0,SW,5.8,-,N/A,,Clear,220,2013-07-10 17:57:00
1:57 PM,96.1,64.0,35,29.96,10.0,Variable,6.9,-,N/A,,Clear,0,2013-07-10 18:57:00
2:57 PM,97.0,64.9,35,29.95,10.0,West,9.2,-,N/A,,Clear,280,2013-07-10 19:57:00
3:57 PM,97.0,64.0,34,29.94,10.0,West,9.2,-,N/A,,Clear,270,2013-07-10 20:57:00
4:57 PM,97.0,64.0,34,29.90,10.0,Variable,3.5,-,N/A,,Clear,0,2013-07-10 21:57:00
5:57 PM,97.0,66.0,36,29.89,10.0,NNW,10.4,-,N/A,,Partly Cloudy,330,2013-07-10 22:57:00
6:57 PM,96.1,64.9,36,29.91,10.0,NNW,6.9,-,N/A,,Clear,330,2013-07-10 23:57:00
7:57 PM,91.0,66.9,45,29.91,10.0,North,4.6,-,N/A,,Clear,350,2013-07-11 00:57:00
8:57 PM,87.1,68.0,53,29.93,10.0,NE,3.5,-,N/A,,Clear,40,2013-07-11 01:57:00
9:57 PM,84.0,69.1,61,29.96,10.0,ESE,5.8,-,N/A,,Clear,110,2013-07-11 02:57:00
10:57 PM,81.0,69.1,67,29.96,10.0,Calm,Calm,-,N/A,,Clear,0,2013-07-11 03:57:00
11:57 PM,79.0,69.1,72,29.96,10.0,ESE,3.5,-,N/A,,Clear,110,2013-07-11 04:57:00